www.pogodaiklimat.ru

Погода и климат >> Архив погоды >> Южная Африка >> Маунт Эджком


ПОГОДА в Маунт Эджком

  • Прогноз погоды в Маунт Эджком
  • Монитор погоды в Маунт Эджком

АРХИВ ПОГОДЫ в Маунт Эджком

Время (UTC), дата Ветер
(напр.,м/с)
 
Видим.   Явления Облачность Т
(С)
Тd
(С)
f
(%)
Тe
(С)
Тes
(С)
Комфортность P
(гПа)
Po
(гПа)
Тmin
(С)
Tmax
(С)
R
(мм)
R24
(мм)
S
(см)
21 16.09 СВ 1 н/о н/о +21.7 +19.1 85 +27 +27 душно 1017.6 1006.6 +21.6 +28.5
00 17.09 штиль 0 н/о н/о +19.9 +17.5 86 +22 +22 комфорт 1016.8 1005.8 +19.9 +28.5
03 17.09 Ю 1 н/о н/о +20.9 +18.5 86 +26 +26 душно 1017.2 1006.2 +19.8 +28.5
06 17.09 ЮЗ 2 н/о н/о +22.7 +18.1 75 +28 +28 душно 1018.0 1007.1 +19.8
09 17.09 Ю 3 н/о н/о +26.8 +16.9 55 +31 +31 душно 1017.8 1007.0 +19.8 +27.1
12 17.09 ЮВ 3 н/о н/о +26.9 +17.5 56 +31 +31 душно 1016.2 1005.4 +19.8 +27.3
15 17.09 ЮВ 1 н/о н/о +22.9 +16.0 65 +27 +27 душно 1016.4 1005.5 +22.9 +27.3
18 17.09 штиль 0 н/о н/о +19.4 +15.9 80 +21 +21 комфорт 1017.1 1006.1 +19.4 +27.3
21 17.09 штиль 0 н/о н/о +19.5 +16.0 80 +21 +21 комфорт 1017.4 1006.4 +19.2 +27.3
00 18.09 штиль 0 н/о н/о +21.1 +16.9 77 +25 +25 комфорт 1017.2 1006.2 +19.2 +27.3
03 18.09 штиль 0 н/о н/о +21.2 +16.4 74 +25 +25 комфорт 1017.5 1006.5 +19.2 +27.3
06 18.09 ЮЗ 2 н/о н/о +23.0 +15.4 62 +27 +27 душно 1019.7 1008.8 +19.2
09 18.09 ЮВ 3 н/о н/о +25.9 +15.7 53 +29 +29 душно 1019.5 1008.7 +19.2 +27.6
12 18.09 Ю 5 н/о н/о +26.0 +15.8 53 +29 +29 душно 1019.1 1008.3 +19.2 +27.6
15 18.09 Ю 4 н/о н/о +23.4 +15.8 62 +28 +28 душно 1020.7 1009.8 +23.4 +27.6
18 18.09 ЮЗ 3 н/о н/о +22.0 +15.9 68 +26 +26 душно 1022.8 1011.8 +22.0 +27.6
21 18.09 ЮЗ 3 н/о н/о +21.7 +16.0 70 +25 +25 комфорт 1024.6 1013.6 +21.7 +27.6
00 19.09 ЮЗ 2 н/о н/о +20.8 +16.4 76 +25 +25 комфорт 1024.4 1013.3 +20.7 +27.6 0.2
03 19.09 СЗ 2 н/о н/о +20.5 +15.7 74 +24 +24 комфорт 1024.2 1013.1 +20.4 +27.6
06 19.09 штиль 0 н/о н/о +21.4 +16.0 71 +25 +25 комфорт 1024.7 1013.6 +20.4 4
09 19.09 В 2 н/о н/о +23.7 +16.6 64 +27 +27 жарко 1024.1 1013.1 +20.4 +23.7
12 19.09 В 3 н/о н/о +23.9 +18.8 73 +29 +29 душно 1021.5 1010.6 +20.4 +25.6
15 19.09 СВ 3 н/о н/о +22.4 +18.6 79 +28 +28 душно 1021.0 1010.0 +22.4 +25.6
18 19.09 СВ 2 н/о н/о +21.5 +15.8 70 +25 +25 комфорт 1021.6 1010.6 +21.2 +25.6 0.2
21 19.09 СВ 2 н/о н/о +21.1 +14.8 67 +24 +24 комфорт 1020.9 1009.9 +21.1 +25.6
00 20.09 СВ 3 н/о н/о +20.0 +15.3 74 +23 +23 комфорт 1018.3 1007.3 +20.0 +25.6 0.2
03 20.09 СВ 1 н/о н/о +19.3 +13.1 67 +22 +22 комфорт 1015.5 1004.5 +19.3 +25.6
06 20.09 В 1 н/о н/о +23.2 +16.8 67 +28 +28 душно 1015.2 1004.3 +19.0 0.2
09 20.09 В 2 н/о н/о +30.0 +21.0 59 +38 +38 очень
душно
1013.6 1003.0 +19.0 +30.0
12 20.09 В 4 н/о н/о +29.7 +20.1 56 +36 +36 очень
душно
1010.9 1000.3 +19.0 +30.3
15 20.09 В 4 н/о н/о +23.9 +19.2 75 +29 +29 душно 1010.7 999.9 +23.9 +30.3
18 20.09 СВ 1 н/о н/о +21.4 +18.4 83 +26 +26 душно 1011.1 1000.2 +21.4 +30.3
21 20.09 штиль 0 н/о н/о +19.6 +13.8 69 +21 +21 комфорт 1011.1 1000.1 +19.4 +30.3
00 21.09 штиль 0 н/о н/о +18.7 +13.1 70 +19 +19 1010.3 999.3 +18.6 +30.3
03 21.09 Ю 4 н/о н/о +20.9 +12.7 59 +24 +24 комфорт 1012.6 1001.7 +18.6 +30.3
06 21.09 ЮЗ 4 н/о н/о +22.7 +11.2 48 +25 +25 комфорт 1014.4 1003.5 +18.6
09 21.09 Ю 3 н/о н/о +25.9 +12.5 43 +27 +27 жарко 1013.3 1002.5 +18.6 +26.9
12 21.09 В 2 н/о н/о +26.8 +15.7 51 +30 +30 душно 1010.9 1000.2 +18.6 +27.6
15 21.09 В 2 н/о н/о +22.6 +15.5 64 +27 +27 душно 1010.3 999.4 +22.6 +27.6
18 21.09 штиль 0 н/о н/о +19.3 +13.7 70 +21 +21 комфорт 1011.0 1000.0 +19.3 +27.6
21 21.09 Ю 1 н/о н/о +21.2 +14.4 65 +24 +24 комфорт 1010.4 999.5 +19.0 +27.6
00 22.09 ЮЗ 2 н/о н/о +21.6 +14.1 62 +24 +24 комфорт 1010.5 999.6 +19.0 +27.6
03 22.09 ЮЗ 3 н/о н/о +21.1 +12.9 59 +23 +23 комфорт 1012.3 1001.4 +19.0 +27.6
06 22.09 Ю 2 н/о н/о +22.0 +13.7 59 +25 +25 комфорт 1014.7 1003.8 +19.0
09 22.09 Ю 4 н/о н/о +24.0 +14.2 54 +26 +26 жарко 1014.3 1003.5 +19.0 +24.2
12 22.09 Ю 3 н/о н/о +22.8 +14.2 58 +26 +26 жарко 1013.1 1002.2 +19.0 +24.9
15 22.09 Ю 3 н/о н/о +19.7 +13.7 68 +22 +22 комфорт 1015.0 1004.0 +19.7 +24.9
18 22.09 ЮЗ 4 н/о н/о +17.9 +9.3 57 +18 +18 1018.9 1007.8 +17.7 +24.9
21 22.09 ЮЗ 3 н/о н/о +17.4 +6.3 48 +18 +18 1020.1 1008.9 +17.4 +24.9
00 23.09 ЮЗ 4 н/о н/о +16.2 +6.1 51 +16 +16 1021.2 1010.0 +16.1 +24.9
03 23.09 ЮЗ 5 н/о н/о +14.8 +6.9 59 +14 +14 1023.1 1011.8 +14.7 +24.9
06 23.09 ЮЗ 3 н/о н/о +17.0 +5.1 45 +17 +17 1025.2 1014.0 +14.7
09 23.09 Ю 3 н/о н/о +20.3 +3.6 33 +21 +21 комфорт 1025.5 1014.4 +14.7 +20.3
12 23.09 Ю 5 н/о н/о +21.6 +9.6 46 +23 +23 комфорт 1024.3 1013.3 +14.7 +22.4
15 23.09 Ю 6 н/о н/о +19.1 +9.1 52 +19 +19 1025.8 1014.6 +19.1 +22.4
18 23.09 ЮЗ 3 н/о н/о +17.7 +9.9 60 +18 +18 1028.1 1016.9 +17.7 +22.4

 

Местоположение метеостанции Маунт Эджком (Южная Африка): широта -29.70 долгота 31.05 высота над уровнем моря 94 м.

В архиве по умолчанию представлена погода в Маунт Эджком за последнюю неделю. Архивные данные за месяц целиком и за предыдущие месяцы, начиная с января 2011 года, Вы можете получить, выбрав интересующий диапазон дат из раскрывающегося списка и нажав кнопку "Ввод!".


*Определитесь, кто Вы:
робот инопланетянин человек

Внимание! Время в таблицах - всемирное. Для получения местного времени необходимо прибавить поправку, которая равна 2 ч.

Смотрите также архив погоды в соседних городах и на ближайших метеорологических станциях:

Погода в Аэропорту Вирджиния (Южная Африка) (8 км)
Погода в Аэропорту Кинг Шака (Южная Африка) (13 км)
Погода в Дурбане (Южная Африка) (30 км)
Погода в Питермарицбург аэропорту (Южная Африка) (63 км)
Погода в Питермарицбурге (Южная Африка) (63 км)
Погода в Мандини (Южная Африка) (70 км)
Погода в Цедаре (Южная Африка) (77 км)
Погода в Грейтауне (Южная Африка) (82 км)
Погода в Пеннингтоне (Южная Африка) (84 км)
Погода в Мтунзини (Южная Африка) (105 км)

Пояснения к столбцам:

Ветер - указаны скорость ветра в м/с - средняя за 10 мин, порывы в срок и между сроками (в фигурных скобках) и направление, откуда дует ветер: С - северный, СВ - северо-восточный, В - восточный, ЮВ - юго-восточный, Ю - южный, ЮЗ - юго-западный, З - западный, СЗ - северо-западный.
Видимость - горизонтальная дальность видимости в метрах или километрах. При видимости от 1 до 10 км при отсутствии осадков обычно наблюдается дымка, при ухудшении видимости до 1 км и менее - туман. В сухую погоду видимость может ухудшаться дымом, пылью или мглою.
Явления - указаны атмосферные явления, наблюдавшиеся в срок или в последний час перед сроком; фигурными скобками обозначены явления, наблюдавшиеся между сроками (за 1-3 часа до срока); квадратными скобками обозначены град или гололедные отложения с указанием их диаметра в мм.
Облачность - указаны через наклонную черту общая и нижняя облачность в баллах и высота нижней границы облаков в метрах; квадратными скобками обозначены формы облаков: Ci - перистые, Cs - перисто-слоистые, Cc - перисто-кучевые, Ac - высококучевые, As - высокослоистые, Sc - слоисто-кучевые, Ns - слоисто-дождевые, Cu - кучевые, Cb - кучево-дождевые. Подробнее классификацию облаков см. в Атласе облаков (PDF).
T - Температура воздуха - температура, измеренная на высоте 2 м над землей.
Td - Температура точки росы - температура, при понижении до которой содержащийся в воздухе водяной пар достигнет насыщения.
f - Относительная влажность воздуха - влажноcть воздуха, измеренная на высоте 2 м над землей.
Te - Эффективная температура - температура, которую ощущает одетый по сезону человек в тени. Характеристика душности погоды. При расчете учитывается влияние влажности воздуха и скорости ветра на теплоощущения человека.
Tes - Эффективная температура на солнце - температура, которую ощущает человек, с поправкой на солнечный нагрев. Характеристика знойности погоды. Зависит от высоты солнца над горизонтом, облачности и скорости ветра. Ночью, в пасмурную погоду, а также при ветре 12 м/с и более поправка равна нулю.
P - Атмосферное давление - приведенное к уровню моря атмосферное давление.
Po - Атмосферное давление - измеренное на уровне метеостанции атмосферное давление.
Tmin - Минимальная температура - минимум температуры воздуха на высоте 2 м над землей.
Tmax - Максимальная температура - максимум температуры воздуха на высоте 2 м над землей.
R - Количество осадков - Количество выпавших осадков за период времени, мм. При наведении курсора мыши на число - период времени, за который выпало указанное количество осадков.
R24 - Количество осадков - Количество выпавших осадков за 24 часа, мм.
S - Снежный покров - Высота снежного покрова, см. При наведении курсора мыши на число - состояние снежного покрова и степень покрытия местности в баллах.